Starlink 11599

operational
NORAD ID: 63670 Int'l Des: 2025-085 Owner: SPXS Country: US Constellation: starlink
LEOCIRCULAR

Starlink 11599について

説明を読み込み中...

リアルタイム位置

3D地球を読み込み中...

次回通過

高度履歴

Altitude vs Time

uPlot chart will show altitude changes over time

軌道要素

1 63670U 25085G 25351.24581019 .00247914 00000-0 18662-2 0 9990
2 63670 42.9991 55.5325 0001451 232.7825 127.2910 15.70995953 37277
Epoch: Dec 17, 2025 • Age: 7 hours

現在のステータス

高度 368.1 km
速度 7.69 km/s
衛星直下点 -43.16°S, 40.22°E
打ち上げ日 Apr 28, 2025
運用期間 0.6 years
タイプ internet

技術仕様

分類 Payload
質量 960.00 kg
乾燥質量 910.00 kg
総質量 960.00 kg
長さ 0.30 m
直径 4.10 m
スパン 29.00 m
形状 Box + pan
製造者 SPXS
バスタイプ Starlink V2MD
フェーズステータス In Orbit
所有者/国 SPXS/US

大規模コンステレーション

Loading constellations...